Waarnemingen

Advertentie
Mijn weer
Charlwood, Groot Brittannië (3769): temperatuur & dauwpunt: 13.06.2018 05:00:00 - 19.06.2018 05:00:00 (BST)Charlwood, Groot Brittannië (3769): temperatuur -20cm & temperatuur -100cm: 13.06.2018 05:00:00 - 19.06.2018 05:00:00 (BST)Charlwood, Groot Brittannië (3769): windsnelheid: 13.06.2018 05:00:00 - 19.06.2018 05:00:00 (BST)Charlwood, Groot Brittannië (3769): windrichting: 13.06.2018 05:00:00 - 19.06.2018 05:00:00 (BST)Charlwood, Groot Brittannië (3769): luchtdruk: 13.06.2018 05:00:00 - 19.06.2018 05:00:00 (BST)Charlwood, Groot Brittannië (3769): zicht: 13.06.2018 05:00:00 - 19.06.2018 05:00:00 (BST)Charlwood, Groot Brittannië (3769): Zonneschijnduur: 13.06.2018 05:00:00 - 19.06.2018 05:00:00 (BST)Charlwood, Groot Brittannië (3769): neerslag: 13.06.2018 05:00:00 - 19.06.2018 05:00:00 (BST)
Datum & Tijd tt [°C] td [°C] tt -20cm [°C] tt -100cm [°C] ff [km/u] ff [kn] dd ppp [hPa] vv [km] sd [min] rr [mm]
19.06.2018 05:00:00 - - - - - - - - - - 0,0
19.06.2018 04:00:00 16,7 15,1 - - 11 6 WZW 1021,8 17 0 0,0
19.06.2018 03:00:00 16,3 15,0 - - 9 5 WZW 1021,6 11 0 0,0
19.06.2018 02:00:00 16,7 15,1 - - 9 5 WZW 1021,5 12 0 -
19.06.2018 01:00:00 16,7 15,1 - - 11 6 WZW 1021,5 13 - -
19.06.2018 00:00:00 16,7 15,2 - - 13 7 WZW 1021,4 12 0 0,0
18.06.2018 23:00:00 16,3 14,8 - - 11 6 WZW 1021,7 13 0 0,0
18.06.2018 22:00:00 16,3 14,3 - - 11 6 WZW 1021,4 16 0 0,0
18.06.2018 21:00:00 17,2 14,2 - - 13 7 WZW 1021,0 24 0 0,0
18.06.2018 20:00:00 17,8 14,0 - - 21 11 WZW 1020,7 35 0 0,0
18.06.2018 19:00:00 18,5 13,2 - - 21 11 WZW 1020,3 24 18 0,0
18.06.2018 18:00:00 19,5 13,2 - - 21 11 WZW 1019,7 24 24 0,0
18.06.2018 17:00:00 22,9 14,0 - - 16 9 ZW 1019,5 30 54 0,0
18.06.2018 16:00:00 22,5 13,8 - - 18 10 WZW 1019,1 35 54 0,0
18.06.2018 15:00:00 23,9 13,3 - - 18 10 WZW 1019,3 35 60 0,0
18.06.2018 14:00:00 22,1 11,8 - - 13 7 W 1019,5 17 60 0,0
18.06.2018 13:00:00 21,1 12,5 - - 16 9 WZW 1019,8 45 60 0,0
18.06.2018 12:00:00 21,1 14,0 - - 13 7 WZW 1019,7 35 48 0,0
18.06.2018 11:00:00 17,8 12,1 - - 15 8 WZW 1019,7 40 24 0,0
18.06.2018 10:00:00 16,0 11,8 18,2 15,4 13 7 W 1019,8 45 0 0,0
18.06.2018 09:00:00 14,9 12,3 - - 15 8 WZW 1019,6 19 0 0,0
18.06.2018 08:00:00 14,9 12,4 - - 11 6 WZW 1018,9 12 0 0,0
18.06.2018 07:00:00 14,9 12,9 - - 9 5 W 1018,1 40 0 0,0
18.06.2018 06:00:00 14,9 14,1 - - 9 5 WZW 1017,8 10 0 0,0
18.06.2018 05:00:00 14,9 14,5 - - 11 6 WZW 1017,7 5 0 0,0
18.06.2018 04:00:00 14,7 14,4 - - 9 5 ZW 1017,3 3,9 0 0,2
18.06.2018 03:00:00 14,7 14,3 - - 9 5 ZW 1017,0 3,2 0 0,0
18.06.2018 02:00:00 14,7 14,3 - - 11 6 ZW 1017,1 2,6 0 0,0
18.06.2018 01:00:00 14,7 14,3 - - 9 5 ZZW 1017,5 4,2 - 0,0
18.06.2018 00:00:00 14,5 14,2 - - 9 5 ZZW 1017,7 1,7 0 0,0
17.06.2018 23:00:00 14,5 14,0 - - 13 7 ZZW 1017,6 3,2 0 0,0
17.06.2018 22:00:00 14,4 13,9 - - 13 7 ZZW 1017,5 9 0 0,0
17.06.2018 21:00:00 14,1 13,5 - - 15 8 ZW 1017,3 7 0 0,0
17.06.2018 20:00:00 14,0 13,1 - - 13 7 ZW 1017,4 6 0 0,0
17.06.2018 19:00:00 14,0 12,8 - - 15 8 ZW 1017,4 6 0 0,0
17.06.2018 18:00:00 14,7 12,3 - - 16 9 ZZW 1017,4 14 0 0,0
17.06.2018 17:00:00 15,9 11,6 - - 18 10 ZW 1017,3 20 0 0,0
17.06.2018 16:00:00 16,4 11,6 - - 15 8 ZW 1017,2 22 0 0,0
17.06.2018 15:00:00 16,6 11,7 - - 16 9 ZW 1017,2 30 0 0,0
17.06.2018 14:00:00 16,4 10,4 - - 16 9 WZW 1017,3 23 6 0,0
17.06.2018 13:00:00 16,8 11,3 - - 16 9 ZW 1016,9 27 0 0,0
17.06.2018 12:00:00 17,8 10,5 - - 16 9 WZW 1016,8 40 0 0,0
17.06.2018 11:00:00 16,4 9,7 - - 13 7 WZW 1016,8 35 12 0,0
17.06.2018 10:00:00 15,7 11,2 18,2 15,4 16 9 WZW 1017,3 30 48 0,0
17.06.2018 09:00:00 13,8 11,0 - - 16 9 WZW 1017,0 25 0 0,0
17.06.2018 08:00:00 12,5 10,5 - - 11 6 WZW 1017,0 15 0 0,0
17.06.2018 07:00:00 12,9 9,5 - - 13 7 WZW 1016,3 30 0 0,0
17.06.2018 06:00:00 12,7 9,2 - - 11 6 WZW 1015,7 30 0 0,0
17.06.2018 05:00:00 12,6 8,7 - - 11 6 WZW 1015,5 45 0 0,0
17.06.2018 04:00:00 12,6 8,8 - - 11 6 WZW 1015,3 40 0 0,0
17.06.2018 03:00:00 12,2 8,5 - - 8 4 ZW 1015,5 40 0 0,0
17.06.2018 02:00:00 13,2 8,5 - - 11 6 WZW 1015,5 50 0 0,0
17.06.2018 01:00:00 13,8 8,6 - - 11 6 WZW 1015,4 45 - 0,0
17.06.2018 00:00:00 13,3 8,5 - - 9 5 WZW 1015,3 45 0 0,0
16.06.2018 23:00:00 14,3 8,7 - - 8 4 WZW 1015,1 45 0 0,0
16.06.2018 22:00:00 15,1 9,9 - - 11 6 W 1014,7 27 0 0,0
16.06.2018 21:00:00 14,8 12,3 - - 13 7 ZW 1013,9 10 0 0,0
16.06.2018 20:00:00 15,1 12,3 - - 15 8 ZW 1013,7 13 6 0,0
16.06.2018 19:00:00 16,0 11,8 - - 16 9 ZW 1013,8 21 18 0,0
16.06.2018 18:00:00 15,7 12,5 - - 16 9 ZW 1014,0 28 0 0,0
16.06.2018 17:00:00 15,1 12,4 - - 16 9 ZW 1014,2 40 0 0,0
16.06.2018 16:00:00 16,6 12,6 - - 16 9 ZW 1014,5 25 6 0,0
16.06.2018 15:00:00 16,1 11,1 - - 16 9 ZW 1014,5 45 0 0,0
16.06.2018 14:00:00 17,7 11,3 - - 21 11 ZW 1014,4 27 12 0,0
16.06.2018 13:00:00 16,6 9,7 - - 18 10 ZZW 1014,6 30 18 0,0
16.06.2018 12:00:00 16,6 10,8 - - 16 9 ZZW 1014,8 26 0 0,0
16.06.2018 11:00:00 16,6 9,8 - - 16 9 ZZW 1014,9 30 30 0,0
16.06.2018 10:00:00 15,1 10,4 18,7 15,4 13 7 WZW 1015,0 35 12 0,0
16.06.2018 09:00:00 15,6 11,7 - - 9 5 ZW 1014,9 30 36 0,0
16.06.2018 08:00:00 15,5 12,4 - - 11 6 ZW 1015,0 25 30 0,0
16.06.2018 07:00:00 13,2 12,1 - - 8 4 ZW 1015,1 15 0 0,0
16.06.2018 06:00:00 12,2 11,3 - - 5 3 ZW 1014,8 15 0 0,0
16.06.2018 05:00:00 11,8 10,3 - - 2 1 ZW 1014,9 26 0 0,0
16.06.2018 04:00:00 11,8 10,0 - - 5 3 WZW 1015,5 30 0 0,0
16.06.2018 03:00:00 12,1 10,2 - - 8 4 WZW 1015,5 30 0 0,0
16.06.2018 02:00:00 12,1 9,7 - - 5 3 ZW 1015,9 45 0 0,0
16.06.2018 01:00:00 12,1 9,9 - - 5 3 WZW 1016,1 35 - 0,0
16.06.2018 00:00:00 12,6 10,6 - - 5 3 WZW 1016,0 24 0 0,0
15.06.2018 23:00:00 12,7 10,6 - - 5 3 WZW 1016,0 20 0 0,0
15.06.2018 22:00:00 14,1 10,7 - - 5 3 WZW 1016,0 20 0 0,0
15.06.2018 21:00:00 16,2 10,8 - - 9 5 WZW 1015,9 28 0 0,0
15.06.2018 20:00:00 17,3 11,2 - - 11 6 WZW 1016,0 27 0 0,0
15.06.2018 19:00:00 18,4 11,1 - - 11 6 ZW 1015,6 23 6 0,0
15.06.2018 18:00:00 19,9 10,9 - - 11 6 WZW 1015,6 20 42 0,0
15.06.2018 17:00:00 21,5 10,7 - - 13 7 WZW 1015,8 23 36 0,0
15.06.2018 16:00:00 20,1 10,2 - - 9 5 WZW 1016,1 30 30 0,0
15.06.2018 15:00:00 21,7 10,2 - - 9 5 ZZW 1016,2 27 36 0,0
15.06.2018 14:00:00 22,2 9,3 - - 9 5 ZW 1016,3 40 48 0,0
15.06.2018 13:00:00 20,5 9,3 - - 11 6 WZW 1016,3 30 60 0,0
15.06.2018 12:00:00 21,8 11,2 - - 8 4 ZZW 1016,6 27 60 0,0
15.06.2018 11:00:00 19,5 9,2 - - 8 4 ZZW 1016,5 35 54 0,0
15.06.2018 10:00:00 18,8 10,3 18,2 15,2 4 2 ONO 1016,7 28 60 0,0
15.06.2018 09:00:00 17,0 10,7 - - 5 3 N 1017,1 27 54 0,0
15.06.2018 08:00:00 15,4 11,3 - - 4 2 N 1017,0 20 36 0,0
15.06.2018 07:00:00 11,7 11,5 - - 0 0 N 1016,6 22 12 0,0
15.06.2018 06:00:00 9,1 8,7 - - 4 2 Z 1016,5 15 0 0,0
15.06.2018 05:00:00 8,9 8,3 - - 4 2 ZZW 1016,4 8 0 0,0
15.06.2018 04:00:00 9,3 8,7 - - 4 2 W 1016,3 12 0 0,0
15.06.2018 03:00:00 9,5 8,5 - - 4 2 WZW 1016,3 13 0 0,0
15.06.2018 02:00:00 10,9 9,4 - - 2 1 ZW 1016,1 16 0 0,0
15.06.2018 01:00:00 12,4 9,5 - - 2 1 OZO 1016,2 16 - 0,0
15.06.2018 00:00:00 14,1 10,3 - - 5 3 W 1016,1 20 0 0,0
14.06.2018 23:00:00 12,7 9,7 - - 4 2 W 1015,7 18 0 0,0
14.06.2018 22:00:00 14,9 10,3 - - 5 3 WZW 1015,4 20 0 0,0
14.06.2018 21:00:00 17,4 10,5 - - 8 4 WZW 1014,5 19 6 0,0
14.06.2018 20:00:00 19,7 10,1 - - 8 4 W 1013,5 29 48 0,0
14.06.2018 19:00:00 21,2 10,5 - - 11 6 W 1013,0 18 48 0,0
14.06.2018 18:00:00 21,6 10,5 - - 15 8 WZW 1012,4 23 60 0,0
14.06.2018 17:00:00 21,8 10,7 - - 13 7 W 1012,2 25 54 0,0
14.06.2018 16:00:00 21,4 10,8 - - 13 7 W 1011,8 26 54 0,0
14.06.2018 15:00:00 21,4 12,0 - - 15 8 W 1011,1 19 48 0,0
14.06.2018 14:00:00 18,9 14,8 - - 16 9 ZW 1011,2 30 18 0,0
14.06.2018 13:00:00 17,1 16,5 - - 13 7 ZW 1011,2 17 0 0,0
14.06.2018 12:00:00 15,0 14,3 - - 15 8 ZW 1011,2 4,7 0 0,2
14.06.2018 11:00:00 14,4 13,8 - - 16 9 ZW 1011,0 3,8 0 0,4
14.06.2018 10:00:00 14,4 13,0 18,7 15,2 18 10 ZW 1010,8 7 0 0,0
14.06.2018 09:00:00 14,3 12,5 - - 21 11 ZW 1011,3 9 0 0,0
14.06.2018 08:00:00 14,2 12,0 - - 22 12 ZW 1011,3 19 0 0,0
14.06.2018 07:00:00 14,1 11,5 - - 21 11 ZZW 1011,4 40 0 0,0
14.06.2018 06:00:00 14,0 11,3 - - 18 10 ZZW 1011,7 30 0 0,0
14.06.2018 05:00:00 13,7 11,3 - - 16 9 ZZW 1012,1 35 0 0,0
14.06.2018 04:00:00 13,7 11,8 - - 16 9 ZZW 1012,9 30 0 0,0
14.06.2018 03:00:00 13,5 11,9 - - 13 7 ZZW 1013,5 16 0 0,0
14.06.2018 02:00:00 13,4 12,0 - - 13 7 ZZW 1014,2 9 0 0,0
14.06.2018 01:00:00 13,3 12,0 - - 13 7 ZZW 1015,0 8 - 0,0
14.06.2018 00:00:00 12,7 10,8 - - 9 5 Z 1015,7 11 0 0,0
13.06.2018 23:00:00 13,0 10,4 - - 13 7 ZZW 1016,2 21 0 0,0
13.06.2018 22:00:00 12,9 10,2 - - 8 4 Z 1016,6 29 0 0,0
13.06.2018 21:00:00 14,0 10,0 - - 13 7 ZZW 1016,6 45 0 0,0
13.06.2018 20:00:00 15,7 9,2 - - 11 6 ZZW 1016,7 45 0 0,0
13.06.2018 19:00:00 16,5 9,2 - - 11 6 ZZW 1017,0 50 0 0,0
13.06.2018 18:00:00 17,9 9,0 - - 16 9 ZW 1017,2 35 30 0,0
13.06.2018 17:00:00 19,0 10,8 - - 15 8 ZZW 1017,3 45 42 0,0
13.06.2018 16:00:00 18,7 10,2 - - 16 9 ZW 1017,6 35 0 0,0
13.06.2018 15:00:00 18,7 10,6 - - 15 8 ZW 1018,1 35 6 0,0
13.06.2018 14:00:00 18,8 11,0 - - 15 8 ZW 1018,4 30 6 0,0
13.06.2018 13:00:00 19,9 9,4 - - 9 5 ZW 1018,8 40 42 0,0
13.06.2018 12:00:00 20,6 11,1 - - 8 4 Z 1019,1 25 60 0,0
13.06.2018 11:00:00 18,7 10,5 - - 5 3 ZZW 1019,2 40 60 0,0
13.06.2018 10:00:00 18,1 9,1 18,2 15,2 5 3 ZZW 1019,2 30 60 0,0
13.06.2018 09:00:00 16,5 10,1 - - 4 2 OZO 1019,7 45 60 0,0
13.06.2018 08:00:00 13,5 10,7 - - 4 2 ZZO 1019,9 35 36 0,0
13.06.2018 07:00:00 9,2 9,0 - - 0 0 N 1020,2 35 24 0,0
13.06.2018 06:00:00 6,5 6,3 - - 2 1 W 1019,8 14 0 0,0
13.06.2018 05:00:00 5,6 5,1 - - 2 1 WZW 1020,1 9 0 0,0

tt = temperatuur
td = dauwpunt
tt -20cm = temperatuur -20cm
tt -100cm = temperatuur -100cm
ff = windsnelheid
dd = windrichting
ppp = luchtdruk
vv = zicht
sd = Zonneschijnduur
rr = neerslag

Weerstations in de omgeving